{"data":{"norad_id":69140,"intl_designator":"2026-110S","name":"STARLINK-37653","alt_names":[],"object_type":"PAYLOAD","status":"ACTIVE","operator":null,"country":"US","launch_date":"2026-05-20","launch_site_code":"AFWTR","launch_vehicle":null,"mission":null,"orbit_class":"UNKNOWN","rcs_meters":null,"size_class":null,"mass_kg":null,"dimensions":null,"purposes":["comms"],"wikipedia_slug":null,"has_3d_model":false,"image_url":null,"decayed_at":null,"tle_current":{"epoch":"2026-09-18T23:16:43.321440Z","epoch_age_seconds":155374,"freshness":"FRESH","line1":"1 69140U 26110S   26261.96994585  .00013428  00000+0  41735-3 0  9992","line2":"2 69140  97.2868  97.0811 0003835 120.2946 239.8676 15.33452283 19985","mean_motion":15.33452283,"eccentricity":0.0003835,"inclination_deg":97.2868,"raan_deg":97.0811,"arg_perigee_deg":120.2946,"mean_anomaly_deg":239.8676,"bstar":0.00041735,"rev_number":1998,"period_min":93.905758657376,"perigee_km":462.89696244307,"apogee_km":468.14604851677,"semimajor_km":6843.6585054799,"source":"CELESTRAK","updated_at":"2026-09-20T09:00:44.087520Z"}}}